User: anonymous   Login
Location: Unspecified
(0.0000°N, 0.0000°E)
Time: 18:41:35
(UTC+00:00)
Language:

Transit 4B - Orbit

View from above orbital plane
View from above orbital plane
View from above satellite
View from above satellite

Ground track
Ground track

The orbit data is extracted from the following two-line orbital elements,

1   202U 61031A   19077.86655706  .00000043  00000-0  23692-4 0  9995
2   202  32.4386 298.5029 0101786 270.7886  88.1074 13.63524714859510
Epoch (UTC): 18 March 2019 20:47:50
Eccentricity: 0.0101786
inclination: 32.4386°
perigee height: 947 km
apogee height: 1098 km
right ascension of ascending node: 298.5029°
argument of perigee: 270.7886°
revolutions per day: 13.63524714
mean anomaly at epoch: 88.1074°
orbit number at epoch: 85951

The dashed part of the orbit path shows where the satellite is in the earth's shadow,  

DLR